◎1999 FAの軌道と予報位置です



1999 FA 

Epoch 1999 Jan. 22.0 TT = JDT 2451200.5                 Nakano

M  12.28588              (2000.0)            P               Q

n   0.88581010     Peri.  294.90468     -0.19910561     -0.97873978

a   1.0737643      Node   166.30548     +0.95734224     -0.20499969

e   0.1317055      Incl.   12.00649     +0.20941059     +0.00660081

P   1.11           H   20.2           G   0.15           U   7

Residuals in seconds of arc 

990316 704  0.3-  1.0-    990317 636  1.0+  0.6+    990319 327  0.5-  0.7+  

990316 704  1.5-  1.2-    990317 611  0.3+  0.1+    990319 327  0.2-  0.1+  

990316 704  0.8-  0.9-    990317 636  1.2+  0.5+    990319 327  0.2-  0.0   

990316 704 (3.5+  1.5-)   990317 636  0.6+  1.0+    990319 327  0.2-  0.1+  

990316 704  0.2+  0.2-    990317 636  0.3+  0.2+    990319 620 (2.7+  2.5-) 

990316 704  0.2+  0.2+    990317 636  0.1+  0.3+    990319 620 (2.8+  2.6-) 

990316 704  0.2+  0.8+    990317 636  0.0   0.4+    990319 620 (2.9+  2.5-) 

990316 704  0.0   0.8+    990318 557  0.2+  0.0     990319 958  1.2-  0.1-  

990316 704  0.3-  1.3+    990318 557  0.1+  0.1-    990319 620 (2.9+  2.3-) 

990316 620  0.8-  0.2+    990318 046  0.3+  0.2+    990319 958  0.8-  0.2+  

990316 620  0.7-  0.1-    990318 046  0.2+  0.0     990319 958  0.6-  0.1+  

990316 620  0.6-  0.3-    990318 046  0.4+  0.1+    990320 958  1.2-  0.6-  

990316 620  0.1-  0.5-    990318 046  0.3+  0.1+    990320 104  0.8+  0.1+  

990317 758  0.1+  0.5+    990318 557  0.3-  0.1+    990320 104  0.2-  0.1+  

990317 758  1.0+  1.0+    990318 557  0.2+  0.0     990320 104  0.3-  0.3+  

990317 758  0.3+  0.3+    990318 557  0.2+  0.0     990320 104  0.6-  0.2+  

990317 758  0.9+  0.6+    990318 557  0.3-  0.1+    990320 658  0.2+  0.1+  

990317 761  0.6+  0.2+    990318 557  0.2-  0.1+    990320 658  0.2+  0.4+  

990317 761  0.4+  0.4+    990318 587  0.1-  0.4-    990320 658  0.1+  0.3+  

990317 761  0.2-  0.3+    990318 587  0.2+  0.6-    990320 108  0.7-  1.0-  

990317 402  0.1+  0.7-    990318 587  0.1+  0.4-    990320 108  0.2+  0.0   

990317 402  0.1+  0.6-    990318 557  0.3-  0.1-    990320 108  0.4-  0.1-  

990317 402  0.6+  0.6-    990318 557  0.0   0.1-    990320 108  0.3-  0.3-  

990317 402  0.1+  0.6-    990318 046  0.0   0.0     990320 587  0.2-  0.4+  

990317 900  0.1+  0.6-    990318 151  0.1-  0.3-    990320 587  0.1-  0.2-  

990317 900  0.1+  0.6-    990318 046  0.0   0.1-    990321 726  0.0   0.0   

990317 151  0.1-  0.3-    990318 046  0.0   0.1-    990321 726  0.1-  0.2+  

990317 151  0.1+  0.9-    990318 046  0.0   0.1-    990321 726  0.1+  0.2+  

990317 151  0.2-  0.5-    990318 151  0.1+  0.0     990321 726  0.0   0.4-  

990317 151  0.7+  0.6-    990318 151  0.7-  0.2+    990321 735  0.3+  0.6+  

990317 151  0.2-  0.3+    990318 151  0.3+  0.0     990321 735  0.3+  0.3+  

990317 557  0.0   0.0     990318 151  0.3-  0.3-    990321 735  0.3+  0.5+  

990317 557  0.0   0.2+    990318 151  0.4-  0.1-    990323 355  0.5+  0.3-  

990317 557  0.1-  0.0     990318 557  0.2-  0.2+    990323 355  0.6+  0.0   

990317 611  0.3+  0.0     990319 557  0.1+  0.1+    990323 355  0.6+  0.4-  

990317 611  0.1-  0.1+    990319 557  0.1+  0.2+                            

 



摂動なしの予報位置は,1゚近くずれます.

 

Date/        TT  R.A.(2000) Decl.     Delta   r     Daily motion  Mag.  Moon Age

              h    h  m       。  ,                      ,  / PA 。  V       。

1999 Mar. 24 12  12 50.34  +58 55.9   0.073  1.035    26.0 / 105  16.7   77  .51

          25 12  12 53.56  +58 48.9   0.077  1.037    23.6 / 109  16.8   71  .62

          26 12  12 56.42  +58 41.2   0.082  1.039    21.6 / 113  16.9   65  .72

          27 12  12 58.97  +58 32.8   0.086  1.041    20.0 / 116  17.0   60  .81

          28 12  13 01.25  +58 23.9   0.090  1.044    18.7 / 120  17.1   57  .88

          29 12  13 03.29  +58 14.4   0.094  1.046    17.6 / 124  17.2   55  .94

          30 12  13 05.13  +58 04.5   0.098  1.048    16.7 / 128  17.3   55  .98

          31 12  13 06.78  +57 54.1   0.102  1.050    16.1 / 132  17.4   57 1.00

     Apr.  1 12  13 08.27  +57 43.4   0.106  1.052    15.6 / 136  17.5   61 1.00

           2 12  13 09.62  +57 32.2   0.110  1.055    15.2 / 139  17.6   65  .98

           3 12  13 10.85  +57 20.6   0.114  1.057    15.0 / 143  17.7   70  .94

           4 12  13 11.95  +57 08.7   0.118  1.059    14.8 / 146  17.8   76  .89

           5 12  13 12.96  +56 56.4   0.122  1.061    14.8 / 149  17.8   83  .82

           6 12  13 13.88  +56 43.7   0.126  1.063    14.8 / 152  17.9   89  .74

           7 12  13 14.72  +56 30.6   0.130  1.066    14.9 / 155  18.0   96  .65

           8 12  13 15.49  +56 17.2   0.134  1.068    15.0 / 157  18.0  103  .56

           9 12  13 16.19  +56 03.3   0.138  1.070    15.2 / 159  18.1  109  .46

          10 12  13 16.84  +55 49.1   0.142  1.072    15.5 / 161  18.2  115  .36

          11 12  13 17.44  +55 34.5   0.146  1.075    15.7 / 162  18.2  120  .27

          12 12  13 18.00  +55 19.5   0.150  1.077    16.0 / 164  18.3  124  .18

          13 12  13 18.53  +55 04.2   0.154  1.079    16.3 / 165  18.4  126  .10

          14 12  13 19.02  +54 48.4   0.158  1.081    16.7 / 166  18.4  126  .04

          15 12  13 19.48  +54 32.2   0.162  1.083    17.0 / 167  18.5  123  .01

NAKANO

         **** Don't distribute anyone except personal use only ****

                (C) Copyright 1999 OAA/ComputingSection

write mail from CFAD0::NAKANO on 1999-03-24 19:11:54(JST).

 



1999 FA   

Epoch 1999 Mar. 23.0 TT = JDT 2451260.5                 Nakano

M  63.72980              (2000.0)            P               Q

n   0.88017265     Peri.  296.68160     -0.22871045     -0.97223332

a   1.0783444      Node   166.26493     +0.95078783     -0.23401272

e   0.1328723      Incl.   12.04242     +0.20903117     +0.00065315

P   1.12           H   20.3           G   0.15           U   *

 



NAKANO

         **** Don't distribute anyone except personal use only ****

                (C) Copyright 1999 OAA/ComputingSection

write mail from CFAD0::NAKANO on 1999-03-19 00:04:05(JST).

戻ります。